Regional Weather Roundup
Issued by NWS Portland, ME

Current Version | Previous Version | Text Only | Print | Product List | Glossary Off
Versions: 1 2 3 4 5 6 7 8 9 10 11 12 13 14 15 16 17 18 19 20 21 22 23 24 25 26 27 28 29 30 31 32 33 34 35 36 37 38 39 40 41 42 43 44 45 46 47 48 49 50
000 ASUS41 KGYX 202105 RWRGYX WEATHER ROUNDUP FOR MAINE AND NEW HAMPSHIRE NATIONAL WEATHER SERVICE GRAY ME 500 PM EDT MON AUG 20 2018 MEZ002-005-006-010-012-015-018-020-021-024-026-027-029-202200- MAINE CITY SKY/WX TMP DP RH WIND PRES REMARKS PORTLAND FAIR 70 59 68 SE7 30.18S SANFORD FAIR 71 61 70 SE7 30.19R BAR HARBOR FAIR 71 59 65 E6 30.17S WISCASSET FAIR 72 59 63 VRB6 30.18S ROCKLAND FAIR 68 58 70 E9 30.17S FRYEBURG FAIR 75 57 53 CALM 30.17S LEWISTONAUBURN CLOUDY 72 60 66 S8 30.17S AUGUSTA CLOUDY 76 60 57 VRB6 30.17S WATERVILLE FAIR 76 56 49 CALM 30.14S BANGOR PTSUNNY 77 55 46 N6 30.16S GREENVILLE N/A 71 54 54 E7 30.17S MILLINOCKET FAIR 75 52 44 VRB3 30.17S HOULTON FAIR 72 55 55 S5 30.16S PRESQUE ISLE FAIR 73 53 49 SE6 30.17F FRENCHVILLE FAIR 74 51 44 S6 30.16S CARIBOU FAIR 73 45 36 S6 30.16F $$ NHZ002-005-008-009-011-012-014-202200- NEW HAMPSHIRE CITY SKY/WX TMP DP RH WIND PRES REMARKS PORTSMOUTH MOSUNNY 70 56 61 E7 30.16S ROCHESTER FAIR 72 60 66 E6 30.17S NASHUA FAIR 75 59 57 E10 30.17F MANCHESTER FAIR 75 57 53 E9 30.15S CONCORD PTSUNNY 73 59 61 SE7 30.16S LACONIA FAIR 75 58 55 SE7 30.16F PLYMOUTH FAIR 77 54 45 SW3 30.15S BERLIN FAIR 77 56 48 SE6 30.16F WHITEFIELD FAIR 79 57 46 CALM 30.15F JAFFREY FAIR 73 60 63 VRB3 30.18F KEENE CLOUDY N/A N/A N/A CALM 30.15F LEBANON FAIR 79 54 41 CALM 30.13F MT WASHINGTON PTSUNNY 52 46 82 W12 N/A $$ VTZ005-007-008-202200- VERMONT CITY SKY/WX TMP DP RH WIND PRES REMARKS ST JOHNSBURY N/A 77 56 48 MISG 30.12F MONTPELIER FAIR 73 58 59 S7 30.18F BURLINGTON FAIR 81 58 45 W8 30.10F $$ MAZ007-012-024-CTZ003-RIZ002-NYZ038-NYZ072-202200- SOUTHERN NEW ENGLAND AND NY CITY SKY/WX TMP DP RH WIND PRES REMARKS BOSTON FAIR 71 62 73 E13 30.17S WORCESTER CLOUDY 70 58 65 NE6 30.17F NANTUCKET CLOUDY 68 65 90 N17 30.11R PROVIDENCE FAIR 75 57 53 NE17 30.14S HARTFORD PTSUNNY 77 59 53 E10 30.12F ALBANY PTSUNNY 79 59 50 SE7 30.11F NEW YORK CITY PTSUNNY 76 63 64 E8 30.11F $$ ANZ081-ANZ082-ANZ150-NHZ014-MEZ023>029-202200- COASTAL MARINE OBSERVATIONS STATION/POSITION TIME TEMP WIND PRES WAVE AIR SEA DIR/SP/G HT/PER (UTC) (F) (DEG/KT/KT) (MB) (FT/S) MOUNT DESERT ROC 2100 61 50/ 10/ 11 1021.7S MATINICUS ROCK 2000 62 90/ 11/ 11 1021.3F ISLE OF SHOALS 2000 65 60/ 7/ 7 1021.5R JEFFREYS LEDGE 2036 69 N/A 5/ 8 $$ .............KEY.............. WCI - WIND CHILL TC - TEMPERATURE IN CELSIUS VSB - VISIBILITY IN MILES HX - HEAT INDEX FAIR- INDICATES FEW OR NO CLOUDS BELOW 12,000 FT, WITH NO SIGNIFICANT WEATHER AND/OR OBSTRUCTIONS TO VISIBILITY.

USA.gov is the U.S. government's official web portal to all federal, state and local government web resources and services.